TimeCEST,TemperatureF,Dew PointF,Humidity,Sea Level PressureIn,VisibilityMPH,Wind Direction,Wind SpeedMPH,Gust SpeedMPH,PrecipitationIn,Events,Conditions,WindDirDegrees,DateUTC
12:25 AM,42.8,41.0,93,29.62,6.2,Calm,Calm,-,N/A,,Mostly Cloudy,0,2013-05-15 22:25:00
1:25 AM,42.8,41.0,93,29.59,6.2,Variable,3.5,-,N/A,,Mostly Cloudy,0,2013-05-15 23:25:00
2:00 AM,42,40,90,29.64,11,Calm,Calm,,,,Mostly Cloudy,,2013-05-16 00:00:00
2:25 AM,41.0,41.0,100,29.59,6.2,Variable,2.3,-,N/A,,Mostly Cloudy,0,2013-05-16 00:25:00
3:25 AM,42.8,41.0,93,29.56,6.2,Variable,1.2,-,N/A,,Mostly Cloudy,0,2013-05-16 01:25:00
4:25 AM,42.8,41.0,93,29.56,6.2,Variable,2.3,-,N/A,,Mostly Cloudy,0,2013-05-16 02:25:00
4:57 AM,42.8,41.0,93,29.56,6.2,Calm,Calm,-,N/A,,Light Drizzle,0,2013-05-16 02:57:00
5:00 AM,44,42,88,29.58,19,Calm,Calm,,,Rain,Light Drizzle,,2013-05-16 03:00:00
5:07 AM,44.6,41.0,87,29.56,6.2,Calm,Calm,-,N/A,,Light Drizzle,0,2013-05-16 03:07:00
5:17 AM,44.6,41.0,87,29.56,6.2,Calm,Calm,-,N/A,,Light Drizzle,0,2013-05-16 03:17:00
5:25 AM,44.6,42.8,93,29.56,6.2,Calm,Calm,-,N/A,Rain,Light Rain Showers,0,2013-05-16 03:25:00
5:47 AM,42.8,42.8,100,29.56,6.2,Calm,Calm,-,N/A,Rain,Light Rain Showers,0,2013-05-16 03:47:00
6:25 AM,44.6,41.0,87,29.53,6.2,Variable,1.2,-,N/A,,Mostly Cloudy,0,2013-05-16 04:25:00
6:37 AM,44.6,41.0,87,29.53,6.2,Calm,Calm,-,N/A,,Mostly Cloudy,0,2013-05-16 04:37:00
6:43 AM,44.6,41.0,87,29.53,6.2,Calm,Calm,-,N/A,,Mostly Cloudy,0,2013-05-16 04:43:00
6:52 AM,44.6,41.0,87,29.53,6.2,Variable,1.2,-,N/A,,Mostly Cloudy,0,2013-05-16 04:52:00
7:25 AM,44.6,41.0,87,29.50,6.2,NNE,4.6,-,N/A,,Overcast,20,2013-05-16 05:25:00
7:32 AM,46.4,41.0,81,29.50,6.2,NNE,4.6,-,N/A,,Mostly Cloudy,20,2013-05-16 05:32:00
8:00 AM,46,42,80,29.53,19,Calm,Calm,,,,Clear,,2013-05-16 06:00:00
8:07 AM,46.4,41.0,81,29.50,6.2,Variable,3.5,-,N/A,,Mostly Cloudy,0,2013-05-16 06:07:00
8:25 AM,46.4,41.0,81,29.50,6.2,Variable,3.5,-,N/A,,Mostly Cloudy,0,2013-05-16 06:25:00
9:25 AM,46.4,42.8,87,29.50,6.2,Variable,2.3,-,N/A,Rain,Light Rain Showers,0,2013-05-16 07:25:00
9:57 AM,46.4,44.6,93,29.47,5.6,Variable,2.3,-,N/A,Rain,Light Rain Showers,0,2013-05-16 07:57:00
10:17 AM,48.2,46.4,93,29.47,4.3,Variable,2.3,-,N/A,Rain,Rain Showers,0,2013-05-16 08:17:00
10:25 AM,48.2,46.4,93,29.47,4.3,Variable,2.3,-,N/A,Rain,Rain,0,2013-05-16 08:25:00
10:29 AM,48.2,46.4,93,29.47,5.0,Variable,2.3,-,N/A,Rain,Light Rain,0,2013-05-16 08:29:00
10:35 AM,48.2,46.4,93,29.47,4.3,Variable,3.5,-,N/A,Rain,Light Rain,0,2013-05-16 08:35:00
10:41 AM,48.2,46.4,93,29.47,5.0,Variable,3.5,-,N/A,,Drizzle,0,2013-05-16 08:41:00
10:47 AM,48.2,46.4,93,29.47,6.2,Variable,2.3,-,N/A,,Light Drizzle,0,2013-05-16 08:47:00
10:57 AM,48.2,46.4,93,29.47,6.2,Variable,2.3,-,N/A,,Mostly Cloudy,0,2013-05-16 08:57:00
11:00 AM,49,47,89,29.48,7,,2.2,,,Rain,Rain,,2013-05-16 09:00:00
11:12 AM,48.2,46.4,93,29.47,6.2,Variable,3.5,-,N/A,,Mostly Cloudy,0,2013-05-16 09:12:00
11:18 AM,48.2,46.4,93,29.47,6.2,Variable,3.5,-,N/A,,Mostly Cloudy,0,2013-05-16 09:18:00
11:25 AM,48.2,46.4,93,29.47,6.2,Variable,3.5,-,N/A,,Mostly Cloudy,0,2013-05-16 09:25:00
12:02 PM,51.8,48.2,88,29.44,6.2,NNE,5.8,-,N/A,,Mostly Cloudy,20,2013-05-16 10:02:00
12:25 PM,51.8,48.2,88,29.44,6.2,North,4.6,-,N/A,,Mostly Cloudy,10,2013-05-16 10:25:00
12:37 PM,50.0,48.2,94,29.44,6.2,Variable,3.5,-,N/A,,Mostly Cloudy,0,2013-05-16 10:37:00
12:52 PM,50.0,48.2,94,29.44,4.3,NNW,4.6,-,N/A,,Light Drizzle,330,2013-05-16 10:52:00
12:58 PM,48.2,46.4,93,29.44,3.1,NNW,5.8,-,N/A,,Light Drizzle,330,2013-05-16 10:58:00
1:25 PM,50.0,48.2,94,29.44,-9999.0,NNW,6.9,-,N/A,Rain,Light Rain Showers,330,2013-05-16 11:25:00
2:00 PM,49,48,93,29.45,2,NNW,4.5,,,Rain,Light Rain Showers,330,2013-05-16 12:00:00
2:17 PM,48.2,48.2,100,29.44,1.8,NW,4.6,-,N/A,Rain,Light Rain Showers,310,2013-05-16 12:17:00
2:25 PM,48.2,46.4,93,29.44,-9999.0,WNW,4.6,-,N/A,Rain,Rain,300,2013-05-16 12:25:00
2:37 PM,48.2,48.2,100,29.44,-9999.0,Variable,3.5,-,N/A,Rain,Rain,0,2013-05-16 12:37:00
3:25 PM,50.0,48.2,94,29.44,3.7,Variable,1.2,-,N/A,Rain,Light Rain,0,2013-05-16 13:25:00
4:25 PM,51.8,50.0,94,29.44,5.0,Variable,1.2,-,N/A,,Drizzle,0,2013-05-16 14:25:00
4:42 PM,51.8,51.8,100,29.42,6.2,Variable,1.2,-,N/A,,Drizzle,0,2013-05-16 14:42:00
5:00 PM,53,51,90,29.42,6,,2.2,,,Rain,Drizzle,,2013-05-16 15:00:00
5:07 PM,53.6,51.8,94,29.42,6.2,Variable,1.2,-,N/A,Rain,Light Rain,0,2013-05-16 15:07:00
5:13 PM,53.6,51.8,94,29.42,6.2,Variable,2.3,-,N/A,,Light Drizzle,0,2013-05-16 15:13:00
5:25 PM,53.6,50.0,88,29.42,6.2,Variable,1.2,-,N/A,,Mostly Cloudy,0,2013-05-16 15:25:00
5:52 PM,53.6,50.0,88,29.42,6.2,WSW,4.6,-,N/A,,Mostly Cloudy,240,2013-05-16 15:52:00
5:58 PM,53.6,50.0,88,29.42,6.2,WSW,5.8,-,N/A,,Mostly Cloudy,240,2013-05-16 15:58:00
6:04 PM,53.6,50.0,88,29.42,6.2,WSW,5.8,-,N/A,,Mostly Cloudy,240,2013-05-16 16:04:00
6:17 PM,53.6,50.0,88,29.42,6.2,WSW,5.8,-,N/A,,Mostly Cloudy,240,2013-05-16 16:17:00
6:25 PM,53.6,50.0,88,29.42,6.2,WSW,5.8,-,N/A,,Mostly Cloudy,250,2013-05-16 16:25:00
6:42 PM,53.6,50.0,88,29.44,6.2,WSW,5.8,-,N/A,,Mostly Cloudy,250,2013-05-16 16:42:00
6:52 PM,50.0,50.0,100,29.44,4.3,WNW,9.2,-,N/A,,Mostly Cloudy,290,2013-05-16 16:52:00
6:58 PM,50.0,50.0,100,29.44,1.7,WNW,8.1,-,N/A,,Mostly Cloudy,300,2013-05-16 16:58:00
7:04 PM,50.0,50.0,100,29.44,1.7,NW,5.8,-,N/A,,Mostly Cloudy,310,2013-05-16 17:04:00
7:25 PM,50.0,48.2,94,29.44,0.5,NW,5.8,-,N/A,Fog,Fog,310,2013-05-16 17:25:00
7:28 PM,50.0,48.2,94,29.44,0.9,NW,6.9,-,N/A,,Mist,320,2013-05-16 17:28:00
7:34 PM,48.2,48.2,100,29.44,0.4,NW,6.9,-,N/A,Fog,Fog,310,2013-05-16 17:34:00
8:00 PM,48,48,100,29.46,0,WNW,8.9,,,Fog,Fog,300,2013-05-16 18:00:00
8:25 PM,46.4,46.4,100,29.44,0.1,WNW,5.8,-,N/A,Fog,Fog,300,2013-05-16 18:25:00
9:25 PM,44.6,44.6,100,29.47,0.2,WNW,6.9,-,N/A,Fog,Fog,290,2013-05-16 19:25:00
10:25 PM,44.6,44.6,100,29.47,0.1,West,5.8,-,N/A,Fog,Fog,280,2013-05-16 20:25:00
10:34 PM,44.6,44.6,100,29.47,0.5,West,5.8,-,N/A,,Overcast,280,2013-05-16 20:34:00
10:47 PM,44.6,44.6,100,29.47,-9999.0,West,4.6,-,N/A,,Overcast,280,2013-05-16 20:47:00
10:53 PM,44.6,44.6,100,29.47,2.5,West,4.6,-,N/A,,Overcast,280,2013-05-16 20:53:00
11:00 PM,44,44,100,29.51,3,West,4.5,,,Fog,Fog,280,2013-05-16 21:00:00
11:25 PM,44.6,42.8,93,29.47,1.1,West,4.6,-,N/A,,Mostly Cloudy,280,2013-05-16 21:25:00